Simultaneous Nadir Overpasses (SNOs) Predictions

Prediction of SNOs between NOAA-20 and METOP-C Satellite Orbit:

Table of predicted SNOs for the next 14.0 days since TLE Epoch: 7/28/2023
Index Date (NOAA-20) Time (NOAA-20) Lat,Lon (NOAA-20) SZA (NOAA-20 ) Date (METOP-C) Time (METOP-C) Lat,Lon (METOP-C) SZA (METOP-C ) Distance(km) Time Diff (sec)
1 08/10/2023 06:28:17 73.45, 73.45 58.08 08/10/2023 06:29:25 73.42, 75.72 57.91 71.99 68
2 08/10/2023 07:19:00 -73.39,-119.08 121.99 08/10/2023 07:20:09 -73.31,-117.21 122.19 60.41 69
3 08/10/2023 08:09:41 73.16, 48.74 57.77 08/10/2023 08:10:53 73.09, 49.66 57.64 30.73 72
4 08/10/2023 09:00:23 -73.04,-143.70 122.35 08/10/2023 09:01:36 -73.03,-143.15 122.41 17.78 73
5 08/10/2023 09:51:06 72.91, 23.89 57.52 08/10/2023 09:52:18 72.91, 23.94 57.50 1.55 72
6 08/10/2023 10:41:50 -72.90,-168.76 122.49 08/10/2023 10:43:00 -72.90,-168.76 122.50 0.45 70
7 08/10/2023 11:32:35 72.87, -1.39 57.49 08/10/2023 11:33:40 72.89, -1.46 57.50 3.00 65
8 08/10/2023 12:23:20 -72.90, 165.85 122.47 08/10/2023 12:24:22 -72.88, 165.85 122.51 3.10 62
9 08/10/2023 13:14:05 72.87, -26.78 57.52 08/10/2023 13:15:02 72.86, -26.85 57.50 2.88 57
10 08/10/2023 14:04:49 -72.91, 140.47 122.44 08/10/2023 14:05:42 -72.90, 140.56 122.46 3.17 53
11 08/10/2023 14:55:34 72.88, -52.16 57.54 08/10/2023 14:56:22 72.88, -52.14 57.54 0.98 48
12 08/10/2023 15:46:18 -72.86, 115.19 122.47 08/10/2023 15:47:04 -72.87, 115.16 122.47 1.29 46
13 08/10/2023 16:37:04 72.89, -77.55 57.57 08/10/2023 16:37:44 72.86, -77.53 57.53 2.99 40
14 08/10/2023 17:27:48 -72.87, 89.80 122.44 08/10/2023 17:28:26 -72.85, 89.77 122.47 2.67 38
15 08/10/2023 18:18:33 72.84,-102.83 57.54 08/10/2023 18:19:06 72.83,-102.93 57.53 3.33 33
16 08/10/2023 19:09:18 -72.88, 64.41 122.41 08/10/2023 19:09:47 -72.87, 64.48 122.43 2.25 29
17 08/10/2023 20:00:03 72.85,-128.22 57.57 08/10/2023 20:00:27 72.86,-128.21 57.57 1.24 24
18 08/10/2023 20:50:47 -72.83, 39.13 122.44 08/10/2023 20:51:09 -72.85, 39.09 122.43 2.26 22
19 08/10/2023 21:41:33 72.85,-153.60 57.60 08/10/2023 21:41:49 72.83,-153.61 57.57 2.32 16
20 08/10/2023 22:32:17 -72.84, 13.75 122.42 08/10/2023 22:32:31 -72.82, 13.69 122.43 2.58 14
21 08/10/2023 23:23:03 72.86,-178.99 57.62 08/10/2023 23:23:10 72.86,-178.90 57.61 3.00 7
22 08/11/2023 00:13:47 -72.84, -11.64 122.39 08/11/2023 00:13:52 -72.84, -11.60 122.39 1.46 5
23 08/11/2023 01:04:32 72.81, 155.73 57.59 08/11/2023 01:04:32 72.83, 155.71 57.61 2.01 0



Historial Predications of SNOs between NOAA-20 and METOP-C
